Regional Weather Roundup
Issued by NWS Glasgow, MT

Home | Current Version | Previous Version | Text Only | Print | Product List | Glossary On
Versions: 1 2 3 4 5 6 7 8 9 10 11 12 13 14 15 16 17 18 19 20 21 22 23 24 25 26 27
000
ASUS45 KGGW 261215
RWRGGW
HOURLY REGIONAL WEATHER ROUNDUP FOR NORTHEAST MONTANA
NATIONAL WEATHER SERVICE GLASGOW MONTANA
500 AM MST SUN FEB 26 2017

NOTE: "FAIR" INDICATES FEW OR NO CLOUDS BELOW 12,000 FEET WITH NO
SIGNIFICANT WEATHER AND/OR OBSTRUCTIONS TO VISISBILITY.

NORTHEAST MONTANA


CITY           SKY/WX    TMP DP  RH WIND       PRES   REMARKS
GLASGOW        LGT SNOW  17  14  88 E6        29.66R FOG
6HR MIN TEMP:  17; 6HR MAX TEMP:  18; 6HR PCP: TRACE;

PLENTYWOOD       N/A     12  11  95 CALM        N/A
WOLF POINT     CLOUDY    10   8  92 CALM      29.69R
JORDAN           N/A     26  22  84 W10       29.66S
WINNETT          N/A     28  21  75 SW12G21     N/A
SIDNEY         CLOUDY    17  13  84 E3        29.70R
GLENDIVE       FOG       18  17  96 CALM      29.66S VSB 1/4
MALTA            N/A     24  24 100 CALM        N/A
SCOBEY           N/A     12   4  70 CALM      29.66R HAZE

FORT PECK REPORTS


CITY           SKY/WX    TMP DP  RH WIND       PRES   REMARKS
FORT PECK        N/A     18  18 100 S3          N/A

SOUTHEAST MONTANA


CITY           SKY/WX    TMP DP  RH WIND       PRES   REMARKS
BILLINGS       CLOUDY    28  13  53 W17G26    29.71F
MILES CITY     CLOUDY    26  17  68 W8        29.69R
BAKER          CLEAR     21  13  71 W14       29.65S
LIVINGSTON     CLOUDY    22   7  52 SW28G43   29.71F

CENTRAL MONTANA


CITY           SKY/WX    TMP DP  RH WIND       PRES   REMARKS
HAVRE          CLOUDY    25  21  85 NW12      29.71R
LEWISTOWN      CLOUDY    23  16  74 NW16      29.66S
GREAT FALLS    LGT SNOW  24  20  84 NW10      29.71S FOG
CUT BANK       CLOUDY    21  19  92 N6        29.69S FOG
HELENA         CLOUDY    26  17  68 W3        29.74S
BUTTE          CLOUDY    21   8  57 CALM      29.69F
BOZEMAN        CLOUDY    23  15  71 E5        29.76F

WESTERN MONTANA


CITY           SKY/WX    TMP DP  RH WIND       PRES   REMARKS
MISSOULA       CLOUDY    24  23  96 CALM      29.76F
KALISPELL      NOT AVBL

NORTH DAKOTA


CITY           SKY/WX    TMP DP  RH WIND       PRES   REMARKS
WILLISTON      CLOUDY    10   7  87 CALM      29.71S
DICKINSON      CLOUDY    14  11  87 E7        29.65R
MINOT          CLOUDY     0  -5  79 SW8       29.72F
BISMARCK       CLOUDY    14   8  77 NW3       29.78R

SOUTHERN SASKATCHEWAN


CITY           SKY/WX    TMP DP  RH WIND       PRES   REMARKS
REGINA         CLOUDY    10   7  85 S3        29.66S
ESTEVAN        CRYSTALS   1  -2  85 SW6       29.70S
SWIFT CURRENT  LGT SNOW  18  18 100 W10       29.63R





USA.gov is the U.S. government's official web portal to all federal, state and local government web resources and services.